Covington, KY

11:54 AM EDT on April 26, 2017 (GMT -0400)
Cincinnati-Northern KY International

Weather History for KCVG - November, 2011

Change the Weather History Date:

Tuesday, November 15, 2011

  Actual Average Record
Temperature  
Mean Temperature 56 °F 46 °F  
Max Temperature 59 °F 54 °F 74 °F (1931)
Min Temperature 52 °F 37 °F 14 °F (1916)
Degree Days  
Heating Degree Days 9 20  
Month to date heating degree days 196 253  
Since 1 July heating degree days 591 615  
Cooling Degree Days 0 0  
Month to date cooling degree days 1 0  
Year to date cooling degree days 1349 1121  
Growing Degree Days 5 (Base 50)    
Moisture  
Dew Point 53 °F    
Average Humidity 92    
Maximum Humidity 100    
Minimum Humidity 83    
Precipitation  
Precipitation 0.64 in 0.12 in 1.87 in (2005)
Month to date precipitation 3.94 1.61  
Year to date precipitation 62.37 37.33  
Snow  
Snow 0.00 in 0.00 in 0.40 in (1997)
Month to date snowfall T 0.1  
Since 1 July snowfall T 0.5  
Since 1 September snowfall T 0.5  
Snow Depth 0.00 in    
Sea Level Pressure  
Sea Level Pressure 29.86 in    
Wind  
Wind Speed 7 mph (SW)    
Max Wind Speed 23 mph    
Max Gust Speed 28 mph    
Visibility 9 miles    
Events Rain    
T = Trace of Precipitation, MM = Missing Value Source: NWS Daily Summary

Daily Weather History Graph

Daily Weather History Graph

Search for Another Location

Airport or City:

Trip Planner

Search our weather history database for the weather conditions in past years. The results will help you decide how hot, cold, wet, or windy it might be!

Date:

Astronomy

Nov. 15, 2011 Rise Set
Actual Time 7:21 AM EST 5:24 PM EST
Civil Twilight 6:52 AM EST 5:53 PM EST
Nautical Twilight 6:20 AM EST 6:25 PM EST
Astronomical Twilight 5:48 AM EST 6:57 PM EST
Moon 9:32 PM EST (11/15) 11:20 AM EST (11/15)
Length of Visible Light 11h 00m
Length of Day
10h 03m
Waning Gibbous, 79% of the Moon is Illuminated
Nov 15
Waning Gibbous
Nov 18
Last Quarter
Nov 25
New
Dec 2
First Quarter
Dec 10
Full

Hourly Weather History & Observations

Time (EST) Temp. Dew Point Humidity Pressure Visibility Wind Dir Wind Speed Gust Speed Precip Events Conditions
12:33 AM 59.0 °F 57.2 °F 94% 29.80 in 4.0 mi WSW 5.8 mph - 0.11 in Rain Light Rain
12:52 AM 59.0 °F 57.9 °F 96% 29.79 in 2.5 mi West 9.2 mph - 0.18 in Rain Rain
1:29 AM 57.2 °F 55.4 °F 94% 29.83 in 6.0 mi WNW 9.2 mph - 0.07 in Rain Light Rain
1:52 AM 57.0 °F 55.9 °F 96% 29.81 in 6.0 mi West 6.9 mph - 0.12 in Rain Light Rain
2:52 AM 57.0 °F 54.0 °F 89% 29.83 in 5.0 mi WNW 10.4 mph - 0.06 in Rain Rain
3:52 AM 55.4 °F 50.0 °F 82% 29.86 in 7.0 mi WNW 10.4 mph - N/A Rain Light Rain
4:52 AM 54.0 °F 51.1 °F 90% 29.86 in 4.0 mi WSW 4.6 mph - 0.08 in Rain Rain
5:52 AM 52.0 °F 50.0 °F 93% 29.84 in 7.0 mi South 6.9 mph - 0.09 in Rain Light Rain
6:52 AM 52.0 °F 50.0 °F 93% 29.85 in 10.0 mi SW 5.8 mph - 0.04 in Rain Light Rain
7:52 AM 51.8 °F 50.0 °F 94% 29.88 in 8.0 mi South 10.4 mph - N/A Rain Light Rain
8:52 AM 53.1 °F 51.1 °F 93% 29.88 in 9.0 mi South 13.8 mph - 0.00 in Rain Light Rain
9:40 AM 53.6 °F 51.8 °F 94% 29.89 in 8.0 mi WNW 6.9 mph - 0.01 in Rain Light Rain
9:52 AM 54.0 °F 51.1 °F 90% 29.89 in 8.0 mi West 15.0 mph 20.7 mph 0.01 in   Overcast
10:52 AM 54.0 °F 51.1 °F 90% 29.91 in 10.0 mi West 5.8 mph - N/A   Overcast
11:48 AM 53.6 °F 51.8 °F 94% 29.91 in 10.0 mi SSW 5.8 mph - N/A   Overcast
11:52 AM 54.0 °F 51.1 °F 90% 29.90 in 10.0 mi SSW 5.8 mph - N/A   Overcast
12:47 PM 55.4 °F 51.8 °F 88% 29.89 in 10.0 mi WSW 3.5 mph - N/A   Overcast
12:52 PM 55.0 °F 52.0 °F 89% 29.88 in 10.0 mi Calm Calm - N/A   Overcast
1:40 PM 55.4 °F 51.8 °F 88% 29.85 in 10.0 mi SSE 10.4 mph - N/A   Overcast
1:52 PM 55.9 °F 52.0 °F 87% 29.84 in 10.0 mi South 6.9 mph - N/A   Overcast
2:52 PM 55.9 °F 52.0 °F 87% 29.84 in 10.0 mi South 6.9 mph - N/A   Overcast
3:52 PM 55.4 °F 53.6 °F 94% 29.85 in 10.0 mi South 5.8 mph - N/A   Overcast
4:32 PM 55.4 °F 53.6 °F 94% 29.85 in 10.0 mi Calm Calm - N/A   Overcast
4:43 PM 55.4 °F 53.6 °F 94% 29.86 in 10.0 mi Variable 3.5 mph - N/A   Overcast
4:52 PM 55.9 °F 53.1 °F 90% 29.86 in 10.0 mi West 4.6 mph - N/A   Overcast
5:52 PM 55.0 °F 53.1 °F 93% 29.86 in 5.0 mi South 4.6 mph - 0.00 in   Light Drizzle
6:52 PM 54.0 °F 53.1 °F 97% 29.86 in 8.0 mi South 5.8 mph - 0.01 in   Light Drizzle
7:27 PM 55.4 °F 53.6 °F 94% 29.87 in 9.0 mi South 4.6 mph - 0.00 in   Overcast
7:42 PM 55.4 °F 53.6 °F 94% 29.87 in 10.0 mi South 6.9 mph - 0.00 in   Overcast
7:52 PM 55.0 °F 54.0 °F 96% 29.86 in 10.0 mi SSW 4.6 mph - 0.00 in   Overcast
8:10 PM 55.4 °F 53.6 °F 94% 29.87 in 10.0 mi South 4.6 mph - N/A   Overcast
8:44 PM 55.4 °F 53.6 °F 94% 29.87 in 10.0 mi South 5.8 mph - N/A   Overcast
8:52 PM 55.0 °F 54.0 °F 96% 29.86 in 10.0 mi South 5.8 mph - N/A   Overcast
9:40 PM 55.4 °F 53.6 °F 94% 29.87 in 10.0 mi South 6.9 mph - N/A   Overcast
9:52 PM 55.0 °F 53.1 °F 93% 29.86 in 10.0 mi South 5.8 mph - N/A   Overcast
10:52 PM 55.0 °F 53.1 °F 93% 29.85 in 10.0 mi South 5.8 mph - N/A   Overcast
11:52 PM 55.0 °F 53.1 °F 93% 29.86 in 10.0 mi South 4.6 mph - N/A   Overcast